GW0759 Weather Reports


Display with metric or nautical units.
time (UTC)temp
F
wind
direction
speed
MPH
gust
MPH
rain 1hr
in
rain 24hr
in
rain mn
in
humidity
%
barometer
mb
20260902093058 78 0 1.0 3.0 0.00 0.00 0.00 75 1013.7
20260902091556 77 131 1.0 2.0 0.00 0.00 0.00 76 1013.8
20260902090100 77 0 0.0 1.0 0.00 0.00 0.00 76 1014.0
20260902084603 79 0 0.0 3.0 0.00 0.00 0.00 73 1014.0
20260902083133 79 131 1.0 3.0 0.00 0.00 0.00 73 1014.0
20260902081553 79 0 0.0 3.0 0.00 0.00 0.00 72 1014.1
20260902080054 79 131 1.0 4.0 0.00 0.00 0.00 72 1014.1
20260902074602 79 0 0.0 2.0 0.00 0.00 0.00 72 1014.0
20260902073055 80 0 0.0 2.0 0.00 0.00 0.00 70 1014.2
20260902071554 81 114 1.0 4.0 0.00 0.00 0.00 70 1014.2
20260902070058 81 109 0.0 4.0 0.00 0.00 0.00 69 1014.2
20260902064554 81 148 2.0 4.0 0.00 0.00 0.00 68 1014.2
20260902063059 81 122 2.0 5.0 0.00 0.00 0.00 67 1014.3
20260902061600 82 138 1.0 7.0 0.00 0.00 0.00 67 1014.4
20260902060116 82 192 2.0 6.0 0.00 0.00 0.00 66 1014.2
20260902054556 82 116 2.0 6.0 0.00 0.00 0.00 65 1014.1
20260902053056 83 146 2.0 7.0 0.00 0.00 0.00 64 1013.9
20260902051604 83 130 2.0 10.0 0.00 0.00 0.00 63 1013.9
20260902050108 84 153 3.0 9.0 0.00 0.00 0.00 62 1013.9
20260902044555 84 136 3.0 8.0 0.00 0.00 0.00 61 1013.9
20260902043106 85 149 4.0 9.0 0.00 0.00 0.00 59 1013.8
20260902041552 85 128 3.0 8.0 0.00 0.00 0.00 59 1013.5
20260902040052 84 0 0.0 4.0 0.00 0.00 0.00 59 1013.3
20260902034553 85 140 1.0 4.0 0.00 0.00 0.00 58 1013.2
20260902033054 85 140 2.0 4.0 0.00 0.00 0.00 57 1013.3
20260902031613 85 140 0.0 2.0 0.00 0.00 0.00 57 1013.1
20260902030059 86 140 0.0 6.0 0.00 0.00 0.00 55 1013.0
20260902024558 86 0 1.0 4.0 0.00 0.00 0.00 55 1012.7
20260902023104 87 128 1.0 3.0 0.00 0.00 0.00 54 1012.5
20260902021613 87 0 0.0 2.0 0.00 0.00 0.00 53 1012.4
20260902020058 88 128 1.0 3.0 0.00 0.00 0.00 51 1012.2
20260902014555 88 128 1.0 3.0 0.00 0.00 0.00 50 1012.2
20260902013052 89 0 1.0 4.0 0.00 0.00 0.00 48 1012.0
20260902011556 90 118 1.0 3.0 0.00 0.00 0.00 47 1012.0
20260902010055 91 0 1.0 3.0 0.00 0.00 0.00 46 1011.8
20260902004605 93 140 2.0 7.0 0.00 0.00 0.00 43 1011.8
20260902003106 95 127 3.0 11.0 0.00 0.00 0.00 41 1011.8
20260902001607 97 89 3.0 9.0 0.00 0.00 0.00 40 1011.8
20260902000055 98 117 5.0 10.0 0.00 0.00 0.00 38 1011.9
20260901234559 98 148 2.0 7.0 0.00 0.00 0.00 37 1012.1
20260901233057 98 149 3.0 8.0 0.00 0.00 0.00 37 1012.1
20260901231555 100 130 3.0 7.0 0.00 0.00 0.00 36 1011.9
20260901230104 97 122 2.0 9.0 0.00 0.00 0.00 39 1012.0
20260901224552 97 114 5.0 8.0 0.00 0.00 0.00 39 1012.0
20260901223104 100 100 3.0 10.0 0.00 0.00 0.00 36 1012.1
20260901221554 101 92 6.0 14.0 0.00 0.00 0.00 36 1012.0
20260901220116 98 115 3.0 7.0 0.00 0.00 0.00 38 1012.0
20260901214558 99 123 4.0 9.0 0.00 0.00 0.00 37 1012.3
20260901213058 102 132 4.0 11.0 0.00 0.00 0.00 34 1012.3
20260901211603 99 164 2.0 10.0 0.00 0.00 0.00 37 1012.5
20260901204559 101 87 4.0 11.0 0.00 0.00 0.00 36 1012.9
20260901203054 98 95 5.0 10.0 0.00 0.00 0.00 38 1013.0
20260901201608 102 132 7.0 14.0 0.00 0.00 0.00 35 1013.2
20260901200058 102 107 2.0 11.0 0.00 0.00 0.00 35 1013.2
20260901194607 100 134 5.0 10.0 0.00 0.00 0.00 35 1013.4
20260901193055 100 106 4.0 13.0 0.00 0.00 0.00 37 1013.6
20260901191613 97 157 3.0 10.0 0.00 0.00 0.00 39 1013.7
20260901190054 96 96 5.0 12.0 0.00 0.00 0.00 40 1013.9
20260901184616 97 71 4.0 9.0 0.00 0.00 0.00 40 1014.2
20260901183058 96 126 4.0 8.0 0.00 0.00 0.00 42 1014.5
20260901181601 97 122 6.0 11.0 0.00 0.00 0.00 41 1014.7
20260901180055 97 105 4.0 12.0 0.00 0.00 0.00 41 1015.0
20260901174602 98 90 3.0 10.0 0.00 0.00 0.00 40 1015.2
20260901173059 97 206 3.0 11.0 0.00 0.00 0.00 41 1015.4
20260901171618 95 168 4.0 10.0 0.00 0.00 0.00 44 1015.6
20260901170107 97 113 3.0 11.0 0.00 0.00 0.00 43 1015.8
20260901164608 94 105 4.0 10.0 0.00 0.00 0.00 46 1015.9
20260901163059 93 82 2.0 11.0 0.00 0.00 0.00 50 1016.1
20260901161613 93 134 3.0 8.0 0.00 0.00 0.00 47 1016.1
20260901160116 93 146 4.0 8.0 0.00 0.00 0.00 48 1016.1
20260901154606 91 123 3.0 10.0 0.00 0.00 0.00 52 1016.1
20260901153110 89 202 4.0 10.0 0.00 0.00 0.00 53 1016.1
20260901151604 89 256 2.0 8.0 0.00 0.00 0.00 55 1015.9
20260901150107 87 122 2.0 7.0 0.00 0.00 0.00 58 1016.0
20260901144556 87 64 2.0 6.0 0.00 0.00 0.00 59 1016.0
20260901143119 86 129 3.0 7.0 0.00 0.00 0.00 61 1016.1
20260901141554 84 124 2.0 6.0 0.00 0.00 0.00 66 1016.1
20260901140059 82 134 2.0 7.0 0.00 0.00 0.00 70 1016.1
20260901134557 81 71 2.0 5.0 0.00 0.00 0.00 72 1016.1
20260901133054 81 132 2.0 7.0 0.00 0.00 0.00 72 1016.1
20260901131601 80 149 3.0 7.0 0.00 0.00 0.00 73 1016.0
20260901130055 79 115 2.0 5.0 0.00 0.00 0.00 74 1015.9
20260901124605 78 159 1.0 4.0 0.00 0.00 0.00 75 1015.6
20260901123112 76 159 1.0 2.0 0.00 0.00 0.00 77 1015.5
20260901121601 75 0 0.0 2.0 0.00 0.00 0.00 78 1015.2
20260901120104 75 159 0.0 1.0 0.00 0.00 0.00 77 1015.0
20260901114559 75 0 0.0 1.0 0.00 0.00 0.00 77 1014.9
20260901113105 76 159 0.0 2.0 0.00 0.00 0.00 76 1015.0
20260901111608 76 0 0.0 2.0 0.00 0.00 0.00 75 1014.9
20260901110057 77 0 0.0 2.0 0.00 0.00 0.00 74 1014.7
20260901104604 77 0 0.0 0.0 0.00 0.00 0.00 74 1014.8
20260901103102 77 0 0.0 2.0 0.00 0.00 0.00 73 1014.7
20260901101550 78 0 0.0 4.0 0.00 0.00 0.00 72 1014.9
20260901100057 78 0 0.0 2.0 0.00 0.00 0.00 71 1014.7
20260901094550 79 0 0.0 2.0 0.00 0.00 0.00 70 1014.9